Location: Erba
(45.8000°N, 9.2500°E)
Time: 11:29:29
(UTC+02:00)

ISS - Pass Details

Date: 04 July 2020
Orbit: 417 x 420 km, 51.6° (Epoch: 02 July)

Event Time Altitude Azimuth Distance (km) Brightness Sun altitude
Exits shadow 03:23:02 45° 198° (SSW) 577 -3.6 -16.5°
Maximum altitude 03:23:45 58° 147° (SSE) 489 -3.7 -16.5°
Drops below altitude 10° 03:27:03 10° 67° (ENE) 1,496 -0.2 -16.2°
Sets 03:29:10 0° 64° (ENE) 2,362 1.0 -16.0°
